Home > Weather > Libreville > Past weeks

Flag for Gabon Weather for the Past 2 Weeks in Libreville, Gabon

Now
84 °F

Passing clouds.


Feels Like: 96 °F
Forecast: 80 / 87 °F
Wind: 6 mph from Southwest

Location: Libreville Airport

Current Time: Feb 6, 2016 at 8:03:46 PM

Latest Report: Feb 6, 2016 at 7:00 PM


Visibility: 6 mi

Pressure: 29.83 "Hg

Humidity: 84%

Dew point: 79 °F

Location of LibrevilleLocation

Historic Weather in Libreville — Graph

°F

Libreville Temperature Yesterday

Maximum temperature yesterday: 84 °F (at 12:00 AM)
Minimum temperature yesterday: 81 °F (at 12:00 PM)
Average temperature yesterday: 83 °F

High & Low Weather Summary for the Past Weeks

 TemperatureHumidityPressure
High88 °F (Jan 24, 1:00 PM)100% (Jan 23, 2:00 AM)30.01 "Hg (Jan 23, 2:00 AM)
Low75 °F (Jan 23, 12:00 AM)66% (Jan 28, 1:00 PM)29.77 "Hg (Jan 28, 5:00 PM)
Average83 °F84%29.88 "Hg
* Reported Jan 22 7:00 PM — Feb 6 7:00 PM, Libreville, Weather by CustomWeather, © 2016

Note: Actual official high and low records may vary slightly from our data, if they occured in-between our weather recording intervals... More about our weather records

Advertising

Libreville Weather History for the Previous 24 Hours

 ConditionsComfort  
Time TempWeatherWind HumidityBarometerVisibility
7:00 PM
Sat, Feb 6
84 °FPassing clouds.6 mph84%29.83 "Hg6 mi
6:00 PM84 °FScattered clouds.7 mph84%29.83 "Hg6 mi
5:00 PM86 °FScattered clouds.7 mph79%29.80 "Hg6 mi
4:00 PM86 °FScattered clouds.8 mph79%29.80 "Hg6 mi
3:00 PM88 °FPassing clouds.6 mph75%29.83 "Hg6 mi
2:00 PM88 °FPassing clouds.5 mph75%29.83 "Hg6 mi
1:00 PM88 °FScattered clouds.5 mph70%29.86 "Hg5 mi
12:00 PM88 °FScattered clouds.5 mph75%29.89 "Hg5 mi
11:00 AM86 °FScattered clouds.1 mph79%29.92 "Hg5 mi
10:00 AM84 °FScattered clouds.1 mph79%29.92 "Hg5 mi
9:00 AM81 °FScattered clouds.5 mph89%29.92 "Hg4 mi
8:00 AM79 °FBroken clouds.5 mph100%29.92 "Hg3 mi
7:00 AM77 °FScattered clouds.5 mph100%29.89 "Hg3 mi
6:00 AM77 °FPassing clouds.6 mph100%29.86 "Hg5 mi
5:00 AM77 °FPassing clouds.5 mph100%29.86 "Hg5 mi
4:00 AM79 °FPassing clouds.5 mph94%29.86 "Hg5 mi
3:00 AM79 °FPassing clouds.3 mph94%29.86 "Hg5 mi
2:00 AM79 °FPassing clouds.3 mph94%29.86 "Hg5 mi
1:00 AM79 °FPassing clouds.2 mph94%29.89 "Hg5 mi
12:00 AM81 °FPassing clouds.2 mph89%29.92 "Hg5 mi
11:00 PM
Fri, Feb 5
81 °FPassing clouds.2 mph89%29.92 "Hg5 mi
10:00 PM81 °FPassing clouds.6 mph89%29.92 "Hg5 mi
9:00 PM82 °FPassing clouds.5 mph79%29.89 "Hg5 mi
8:00 PM82 °FPassing clouds.7 mph84%29.86 "Hg5 mi
Weather by CustomWeather, © 2016

See weather overviewHow to use our weather pages